King Salmon, AK

9:24 AM AKDT on September 26, 2017 (GMT -0800)
King Salmon

Weather History for PAKN - June, 2013

Change the Weather History Date:

Friday, June 14, 2013

  Actual Average Record
Temperature  
Mean Temperature 55 °F 51 °F  
Max Temperature 69 °F 61 °F 82 °F (2015)
Min Temperature 40 °F 42 °F 33 °F (1950)
Degree Days  
Heating Degree Days 10 14  
Month to date heating degree days 163 214  
Since 1 June heating degree days 163 214  
Since 1 July heating degree days 11148 10685  
Cooling Degree Days 0 0  
Month to date cooling degree days 0 0  
Year to date cooling degree days 0 0  
Since 1 June cooling degree days 0 0  
Growing Degree Days 4 (Base 50)    
Moisture  
Dew Point 46 °F    
Average Humidity 0    
Maximum Humidity 0    
Minimum Humidity 0    
Precipitation  
Precipitation 0.00 in 0.06 in 0.86 in (2017)
Month to date precipitation 0.12 0.73  
Year to date precipitation 6.48 5.43  
Snow  
Snow 0.00 in 0.00 in - ()
Month to date snowfall 0.0 0.0  
Since 1 June snowfall 0.0 0.0  
Since 1 July snowfall 75.3 46.6  
Snow Depth 0.00 in    
Sea Level Pressure  
Sea Level Pressure 30.26 in    
Wind  
Wind Speed 5 mph (WSW)    
Max Wind Speed 15 mph    
Max Gust Speed 18 mph    
Visibility 10 miles    
Events      
T = Trace of Precipitation, MM = Missing Value Source: NWS Daily Summary

Daily Weather History Graph

Daily Weather History Graph

Search for Another Location

Airport or City:

Trip Planner

Search our weather history database for the weather conditions in past years. The results will help you decide how hot, cold, wet, or windy it might be!

Date:

Astronomy

Jun. 14, 2013 Rise Set
Actual Time 5:16 AM AKDT 11:37 PM AKDT
Civil Twilight 3:55 AM AKDT 12:59 AM AKDT
Nautical Twilight Sun does not set Sun does not set
Astronomical Twilight Sun does not set Sun does not set
Moon 12:22 PM AKDT (6/14) 1:34 AM AKDT (6/14)
Length of Visible Light 21h 03m
Length of Day
18h 20m
Waxing Crescent, 31% of the Moon is Illuminated
Jun 14
Waxing Crescent
Jun 16
First Quarter
Jun 23
Full
Jun 29
Last Quarter
Jul 7
New

Hourly Weather History & Observations

Time (AKDT) Temp. Windchill Dew Point Humidity Pressure Visibility Wind Dir Wind Speed Gust Speed Precip Events Conditions
12:54 AM 53.1 °F - 46.9 °F 80% 30.19 in 10.0 mi SSW 4.6 mph - N/A   Scattered Clouds
1:54 AM 50.0 °F - 46.9 °F 89% 30.22 in 10.0 mi SSW 6.9 mph - N/A   Scattered Clouds
2:54 AM 48.0 °F - 45.0 °F 89% 30.24 in 10.0 mi SSW 5.8 mph - N/A   Scattered Clouds
3:54 AM 46.0 °F 43.9 °F 45.0 °F 96% 30.25 in 10.0 mi SW 4.6 mph - N/A   Scattered Clouds
4:54 AM 45.0 °F 41.8 °F 44.1 °F 97% 30.25 in 10.0 mi South 5.8 mph - N/A   Scattered Clouds
5:24 AM 44.6 °F 41.4 °F 44.6 °F 100% 30.25 in 10.0 mi South 5.8 mph - N/A   Mostly Cloudy
5:54 AM 43.0 °F 41.3 °F 42.1 °F 97% 30.26 in 10.0 mi ESE 3.5 mph - N/A   Mostly Cloudy
6:04 AM 39.2 °F - 39.2 °F 100% 30.26 in 1.5 mi Calm Calm - N/A   Mostly Cloudy
6:54 AM 45.0 °F - 44.1 °F 97% 30.27 in 7.0 mi Calm Calm - N/A   Mostly Cloudy
7:09 AM 46.4 °F 45.2 °F 44.6 °F 93% 30.28 in 10.0 mi SW 3.5 mph - N/A   Mostly Cloudy
7:54 AM 48.0 °F - 45.0 °F 89% 30.28 in 10.0 mi Calm Calm - N/A   Mostly Cloudy
8:54 AM 53.1 °F - 46.9 °F 80% 30.29 in 10.0 mi Calm Calm - N/A   Mostly Cloudy
9:54 AM 57.9 °F - 46.9 °F 67% 30.29 in 10.0 mi Calm Calm - N/A   Scattered Clouds
10:54 AM 61.0 °F - 46.9 °F 60% 30.29 in 10.0 mi WSW 4.6 mph - N/A   Scattered Clouds
11:54 AM 63.0 °F - 46.9 °F 56% 30.29 in 10.0 mi Variable 5.8 mph - N/A   Scattered Clouds
12:54 PM 66.0 °F - 46.0 °F 48% 30.28 in 10.0 mi West 8.1 mph - N/A   Scattered Clouds
1:54 PM 68.0 °F - 48.0 °F 49% 30.27 in 10.0 mi West 8.1 mph - N/A   Scattered Clouds
2:54 PM 66.9 °F - 46.9 °F 49% 30.27 in 10.0 mi West 10.4 mph - N/A   Scattered Clouds
3:54 PM 68.0 °F - 46.9 °F 47% 30.27 in 10.0 mi NW 8.1 mph - N/A   Scattered Clouds
4:54 PM 68.0 °F - 46.9 °F 47% 30.26 in 10.0 mi NW 8.1 mph - N/A   Scattered Clouds
5:54 PM 66.9 °F - 46.9 °F 49% 30.25 in 10.0 mi NW 6.9 mph - N/A   Scattered Clouds
6:54 PM 64.0 °F - 46.9 °F 54% 30.25 in 10.0 mi WNW 9.2 mph - N/A   Mostly Cloudy
7:54 PM 64.0 °F - 46.9 °F 54% 30.24 in 10.0 mi WNW 6.9 mph - N/A   Mostly Cloudy
8:54 PM 63.0 °F - 46.0 °F 54% 30.24 in 10.0 mi WNW 8.1 mph - N/A   Mostly Cloudy
9:54 PM 60.1 °F - 48.9 °F 67% 30.24 in 10.0 mi NW 3.5 mph - N/A   Mostly Cloudy
10:54 PM 59.0 °F - 50.0 °F 72% 30.24 in 10.0 mi Calm Calm - N/A   Mostly Cloudy
11:54 PM 55.9 °F - 50.0 °F 80% 30.24 in 10.0 mi Calm Calm - N/A   Mostly Cloudy